Ames, IA

8:38 AM CDT on March 28, 2017 (GMT -0500)
Ames Municipal

Weather History for KAMW - August, 2013

Change the Weather History Date:

Friday, August 9, 2013

  Actual Average Record
Temperature  
Mean Temperature 70 °F 72 °F  
Max Temperature 82 °F 83 °F 99 °F (2005)
Min Temperature 57 °F 62 °F 51 °F (1997)
Degree Days  
Heating Degree Days 0 0  
Month to date heating degree days 0 0  
Since 1 June heating degree days 51 28  
Since 1 July heating degree days 9 4  
Cooling Degree Days 5 7  
Month to date cooling degree days 50 70  
Year to date cooling degree days 552 556  
Since 1 June cooling degree days 497 507  
Growing Degree Days 20 (Base 50)    
Moisture  
Dew Point 59 °F    
Average Humidity 66    
Maximum Humidity 93    
Minimum Humidity 39    
Precipitation  
Precipitation 0.00 in 0.14 in 4.20 in (2015)
Month to date precipitation 0.06 1.33  
Sea Level Pressure  
Sea Level Pressure 30.05 in    
Wind  
Wind Speed 5 mph (North)    
Max Wind Speed 16 mph    
Max Gust Speed 24 mph    
Visibility 10 miles    
Events      
T = Trace of Precipitation, MM = Missing Value Source: NWS Daily Summary

Daily Weather History Graph

Daily Weather History Graph

Search for Another Location

Airport or City:

Trip Planner

Search our weather history database for the weather conditions in past years. The results will help you decide how hot, cold, wet, or windy it might be!

Date:

Astronomy

Aug. 09, 2013 Rise Set
Actual Time 6:16 AM CDT 8:22 PM CDT
Civil Twilight 5:45 AM CDT 8:53 PM CDT
Nautical Twilight 5:08 AM CDT 9:30 PM CDT
Astronomical Twilight 4:26 AM CDT 10:11 PM CDT
Moon 9:07 AM CDT (8/9) 9:28 PM CDT (8/9)
Length of Visible Light 15h 07m
Length of Day
14h 06m
Waxing Crescent, 8% of the Moon is Illuminated
Aug 9
Waxing Crescent
Aug 14
First Quarter
Aug 20
Full
Aug 28
Last Quarter
Sep 5
New

Hourly Weather History & Observations

Time (CDT) Temp. Heat Index Dew Point Humidity Pressure Visibility Wind Dir Wind Speed Gust Speed Precip Events Conditions
12:53 AM 66.9 °F - 62.1 °F 84% 30.00 in 10.0 mi Calm Calm - N/A   Overcast
1:53 AM 66.0 °F - 61.0 °F 84% 30.01 in 10.0 mi Calm Calm - N/A   Clear
2:53 AM 64.0 °F - 60.1 °F 87% 30.00 in 10.0 mi Calm Calm - N/A   Clear
3:53 AM 62.1 °F - 60.1 °F 93% 29.99 in 10.0 mi Calm Calm - N/A   Overcast
4:53 AM 64.0 °F - 61.0 °F 90% 30.00 in 10.0 mi Calm Calm - N/A   Overcast
5:53 AM 64.9 °F - 62.1 °F 90% 30.00 in 10.0 mi SSW 3.5 mph - N/A   Overcast
6:53 AM 64.9 °F - 62.1 °F 90% 30.02 in 8.0 mi Calm Calm - N/A   Overcast
7:53 AM 66.9 °F - 63.0 °F 87% 30.03 in 10.0 mi WNW 3.5 mph - N/A   Mostly Cloudy
8:53 AM 71.1 °F - 62.1 °F 73% 30.03 in 10.0 mi WNW 6.9 mph - N/A   Clear
9:53 AM 73.9 °F - 64.0 °F 71% 30.03 in 10.0 mi North 10.4 mph - N/A   Clear
10:46 AM 73.4 °F - 64.4 °F 73% 30.06 in 8.0 mi North 11.5 mph - N/A   Mostly Cloudy
10:53 AM 73.9 °F - 64.0 °F 71% 30.04 in 9.0 mi North 13.8 mph - N/A   Mostly Cloudy
11:11 AM 75.2 °F - 64.4 °F 69% 30.07 in 10.0 mi NNE 8.1 mph - N/A   Scattered Clouds
11:53 AM 77.0 °F - 63.0 °F 62% 30.05 in 10.0 mi North 9.2 mph - N/A   Mostly Cloudy
12:53 PM 80.1 °F 80.6 °F 57.9 °F 47% 30.06 in 10.0 mi NNE 12.7 mph 18.4 mph N/A   Partly Cloudy
1:53 PM 80.1 °F 80.2 °F 55.9 °F 43% 30.05 in 10.0 mi North 9.2 mph - N/A   Clear
2:53 PM 79.0 °F - 54.0 °F 42% 30.06 in 10.0 mi North 9.2 mph - N/A   Clear
3:53 PM 80.1 °F 79.9 °F 53.1 °F 39% 30.06 in 10.0 mi North 8.1 mph - N/A   Clear
4:53 PM 79.0 °F - 52.0 °F 39% 30.06 in 10.0 mi North 9.2 mph 16.1 mph N/A   Clear
5:53 PM 77.0 °F - 54.0 °F 45% 30.06 in 10.0 mi North 8.1 mph - N/A   Clear
6:53 PM 75.0 °F - 54.0 °F 48% 30.06 in 10.0 mi North 9.2 mph - N/A   Clear
7:53 PM 73.0 °F - 55.0 °F 53% 30.06 in 10.0 mi North 6.9 mph - N/A   Clear
8:53 PM 68.0 °F - 55.9 °F 65% 30.08 in 10.0 mi Calm Calm - N/A   Clear
9:53 PM 63.0 °F - 57.0 °F 81% 30.10 in 10.0 mi Calm Calm - N/A   Clear
10:53 PM 60.1 °F - 57.0 °F 90% 30.11 in 10.0 mi Calm Calm - N/A   Clear
11:53 PM 59.0 °F - 55.9 °F 90% 30.13 in 8.0 mi Calm Calm - N/A   Clear